Location: *
(51.2167°N, 10.0667°E)
Time: 22:12:35
(UTC+00:00)

USA 116 - Pass Details

Date: 12 December 2019
Orbit: 405 x 834 km, 97.9° (Epoch: 18 November)

Event Time Altitude Azimuth Distance (km) Brightness Sun altitude
Exits shadow 17:51:39 50° 34° (NE) 1,009 4.7 -23.7°
Maximum altitude 17:53:00 73° 102° (ESE) 825 4.3 -23.9°
Drops below altitude 10° 17:58:03 10° 188° (S) 2,261 7.0 -24.7°
Sets 18:00:16 0° 190° (S) 3,134 7.8 -25.0°
